Vorticity
nan nan nan nan nan nan nan nan nan nan nan nan nan nan nan nan nan nan nan nan nan nan nan nan nan nan nan nan nan nan nan nan nan nan nan nan nan nan nan nan nan nan nan nan nan nan nan nan nan nan nan nan nan nan nan nan nan nan nan nan nan nan nan nan nan nan nan nan nan
nan 7 7 7 7 7 7 7 6 5 5 6 7 7 8 9 10 10 9 9 8 7 8 8 7 6 5 7 9 9 9 8 7 7 8 9 8 8 9 9 7 8 8 9 10 11 10 9 11 11 10 9 10 10 10 8 8 9 11 10 9 9 10 10 10 9 8 7 nan
nan 8 7 6 5 5 6 7 4 3 5 8 8 8 9 10 10 10 9 8 6 7 8 7 6 7 8 10 9 8 7 7 7 8 9 9 8 8 8 8 8 9 10 10 10 9 7 9 11 11 9 8 9 10 11 10 9 10 12 11 8 8 9 10 11 9 8 9 nan
nan 7 6 6 5 7 8 7 4 5 9 10 8 9 10 10 9 8 8 7 9 9 8 5 6 8 10 9 7 6 6 6 8 10 10 8 7 7 8 8 9 10 10 10 10 9 9 10 11 11 9 9 11 11 11 11 11 10 11 11 9 8 8 8 9 9 8 9 nan
nan 6 6 6 6 8 9 6 5 8 10 10 8 8 8 9 8 7 7 9 9 6 3 4 8 8 8 6 6 7 8 9 12 13 11 8 9 9 8 8 9 10 11 10 9 10 11 12 12 11 11 12 13 11 10 9 10 9 8 8 9 9 8 7 7 7 7 8 nan
nan 5 5 4 5 8 8 6 6 9 10 8 5 5 6 6 5 4 5 6 5 4 6 11 12 9 8 8 9 10 10 12 12 9 8 9 9 8 8 9 9 9 9 9 9 11 12 13 12 11 11 13 12 11 10 11 10 8 7 6 6 7 7 7 7 8 7 6 nan
nan 5 5 4 6 7 6 5 8 9 10 8 6 6 5 4 3 3 5 7 8 9 12 13 9 7 7 9 11 10 10 10 8 7 8 9 7 7 8 9 9 9 8 9 11 14 15 15 12 10 10 12 13 14 13 11 8 7 5 4 5 6 7 7 7 8 8 7 nan
nan 6 6 7 7 7 6 7 9 9 10 8 6 6 7 7 6 8 10 12 12 11 11 8 4 5 6 8 9 9 10 9 9 9 9 8 7 8 9 10 10 10 11 12 14 15 16 16 13 10 10 12 11 11 13 11 9 6 5 4 4 6 6 7 7 7 9 9 nan
nan 7 8 8 8 8 8 9 9 9 8 6 5 8 10 11 11 12 14 15 12 10 8 5 4 6 7 8 9 11 12 12 11 10 10 9 10 11 12 13 13 13 15 16 16 16 17 17 12 10 9 9 7 6 8 11 11 8 6 7 6 5 4 5 6 6 6 8 nan
nan 8 9 9 8 8 9 10 11 10 10 9 8 10 12 13 13 14 15 13 10 8 8 6 7 8 10 11 13 13 13 12 12 11 11 12 12 13 14 13 13 14 15 17 17 17 18 15 10 6 5 5 4 5 7 10 11 9 6 6 6 5 4 4 5 6 6 7 nan
nan 9 10 9 8 9 10 12 13 12 11 10 10 12 13 13 13 13 12 10 8 8 10 10 11 12 14 15 15 14 13 12 11 11 12 12 12 12 13 12 11 12 13 15 16 16 16 11 7 5 5 4 8 10 11 10 10 10 7 4 4 5 6 5 5 7 9 9 nan
nan 9 9 8 8 10 11 13 14 11 10 9 11 13 14 13 12 12 11 10 11 13 15 14 14 15 17 16 14 14 13 11 11 12 11 10 10 11 11 11 11 11 11 13 15 14 11 7 6 7 10 11 14 13 12 10 11 11 10 7 6 7 7 6 6 6 8 9 nan
nan 8 8 8 8 11 13 14 14 12 10 10 12 13 13 12 11 12 13 14 16 16 15 14 15 16 16 14 14 13 12 11 11 12 10 10 10 10 11 12 11 12 13 13 13 12 10 8 9 13 16 19 17 14 12 13 13 13 12 11 10 9 9 9 8 7 7 8 nan
nan 8 8 8 10 13 14 14 14 12 10 11 13 13 13 12 12 13 14 15 15 14 13 14 14 13 11 12 12 11 11 10 9 10 11 11 11 11 13 13 13 15 16 14 12 12 13 13 13 16 19 22 20 18 17 18 17 16 16 16 15 15 15 15 14 13 12 11 nan
nan 9 10 11 12 14 13 14 14 12 10 12 13 13 14 14 13 13 12 13 14 14 13 13 12 10 9 10 11 11 12 10 9 10 11 12 12 13 14 13 14 15 16 14 12 12 13 13 14 14 15 17 17 17 17 16 16 16 16 17 18 18 18 17 17 15 14 13 nan
nan 11 12 12 13 13 12 14 13 11 10 11 11 12 14 14 12 11 11 13 15 13 11 12 13 12 10 9 10 11 12 11 10 11 12 12 12 12 12 12 12 12 11 11 11 10 9 9 9 8 9 9 10 10 10 10 10 10 10 11 12 13 13 13 13 12 12 11 nan
nan 11 12 12 11 11 12 13 11 9 8 8 10 12 12 13 11 10 10 13 14 12 10 13 14 12 10 9 10 11 12 11 12 12 12 10 10 10 10 10 9 8 8 7 7 6 6 6 5 5 5 6 7 6 6 6 7 6 6 6 7 7 8 8 8 9 9 10 nan
nan 11 11 10 11 11 11 11 9 8 8 9 10 10 10 9 9 9 9 9 10 10 11 12 12 10 9 9 11 12 11 11 11 11 9 9 8 9 8 8 7 7 6 6 5 5 5 5 5 5 5 6 6 6 5 6 6 5 6 6 6 6 7 7 7 8 8 8 nan
nan 10 9 10 10 11 10 9 8 8 9 10 10 9 9 7 9 10 10 8 8 8 9 10 10 9 8 9 11 11 10 10 9 8 8 8 7 7 7 7 6 6 6 6 6 6 6 6 6 6 5 5 5 5 5 6 7 6 7 8 8 8 7 7 8 7 7 7 nan
nan 8 8 9 10 10 10 8 8 8 9 9 9 9 9 9 10 10 10 9 8 8 9 10 10 9 9 9 9 9 9 9 7 7 7 7 6 6 6 6 7 7 7 7 7 7 7 7 7 7 6 6 6 6 7 8 8 8 8 9 10 9 8 8 8 7 7 7 nan
nan 8 8 9 11 10 9 8 8 9 10 10 10 10 10 10 11 10 10 10 9 9 10 10 9 9 8 8 8 8 9 8 7 7 8 8 8 8 8 8 8 7 7 7 7 7 8 8 8 8 8 8 8 8 9 9 9 9 9 9 9 9 9 9 8 8 8 8 nan
nan 9 9 11 11 11 10 9 9 9 10 10 10 11 11 11 10 10 9 9 9 9 10 9 8 8 7 8 8 9 9 8 7 8 8 8 9 9 9 9 8 8 8 9 9 9 9 10 9 10 10 10 10 10 10 10 10 11 11 10 10 11 11 11 10 10 10 10 nan
nan 9 11 12 11 10 10 9 9 10 10 11 11 12 12 11 9 9 8 8 8 7 8 8 7 7 7 8 8 8 8 7 8 8 8 8 8 8 9 10 10 10 11 12 12 12 11 11 10 11 11 11 11 12 12 12 11 11 11 11 12 13 14 13 12 11 11 10 nan
nan 9 10 9 9 10 10 9 10 11 12 12 12 12 11 9 8 8 7 6 5 5 6 6 5 6 7 8 9 9 8 8 8 8 8 8 8 9 10 11 12 13 15 15 18 19 17 12 10 10 11 11 12 12 12 11 10 10 10 11 12 13 13 12 11 10 10 9 nan
nan 9 8 7 8 10 10 11 12 13 12 12 11 10 9 7 7 7 6 5 4 4 4 5 6 7 8 8 9 9 9 9 9 9 9 9 9 10 11 12 13 14 15 19 24 24 19 13 10 8 8 9 10 11 11 11 9 9 9 9 10 11 11 11 11 11 11 12 nan
nan 9 9 9 11 11 11 12 12 12 11 10 9 8 7 7 7 6 5 4 4 5 6 8 9 10 9 8 7 8 9 10 9 9 10 10 10 11 12 12 12 13 16 26 26 20 14 10 9 7 7 7 8 10 11 11 10 10 9 10 11 10 10 10 11 11 12 13 nan
nan 11 11 11 12 12 12 12 11 10 9 8 7 7 7 7 6 5 5 6 6 8 10 12 13 14 11 8 7 7 8 9 9 10 11 10 10 11 12 12 11 16 24 31 21 11 6 7 8 7 7 7 8 9 10 9 9 11 13 13 13 11 10 10 12 13 13 12 nan
nan 12 12 13 13 12 12 11 10 10 9 7 7 7 7 6 6 6 7 7 8 10 12 13 13 13 11 8 7 8 9 10 11 12 11 10 10 10 11 10 10 21 35 31 13 5 4 5 7 8 8 8 10 11 11 11 12 13 14 14 13 12 11 12 14 13 13 12 nan
nan 13 14 14 13 12 11 10 10 9 8 7 7 7 6 6 6 7 8 8 9 11 12 12 10 9 6 5 7 9 11 12 13 11 9 8 9 10 10 9 11 24 34 23 6 3 4 6 6 7 7 8 10 11 11 12 11 11 12 12 10 9 9 10 8 8 9 11 nan
nan 14 14 14 13 12 10 10 9 8 8 7 7 6 6 7 7 8 8 9 10 10 9 7 5 4 4 6 9 10 11 12 11 9 8 8 9 9 10 9 12 21 29 17 1 3 4 5 5 5 5 7 9 9 9 9 8 9 9 8 5 5 6 7 7 7 8 8 nan
nan 15 14 13 12 11 10 9 8 8 7 5 5 6 6 6 7 8 9 10 10 9 6 4 3 4 6 9 10 10 10 10 9 8 8 8 9 8 9 8 12 22 30 16 0 2 3 3 3 4 4 7 9 9 7 7 8 8 7 4 3 4 7 10 11 10 8 7 nan
nan 16 13 11 11 10 9 8 7 7 6 5 6 6 6 7 7 8 9 10 10 8 7 5 5 6 8 9 10 9 10 10 9 8 7 7 7 8 9 8 16 25 33 16 -1 1 1 2 2 3 3 6 8 7 7 8 10 10 9 6 7 8 9 8 9 9 9 10 nan
nan 17 12 10 10 10 9 8 7 7 7 6 6 6 6 7 7 8 9 10 10 9 8 7 7 8 8 10 10 11 11 12 9 8 7 7 7 9 10 10 20 27 34 15 -2 -0 0 1 2 2 2 6 10 9 10 11 12 11 10 9 10 11 10 8 8 9 11 13 nan
nan 14 11 9 10 10 9 8 8 7 7 7 6 6 6 6 7 8 10 10 10 9 8 8 8 8 9 10 10 11 12 11 8 7 7 8 9 10 11 11 19 25 27 12 -1 -0 0 1 1 1 3 8 12 11 11 12 12 9 7 7 9 10 11 12 12 13 13 15 nan
nan 12 10 9 9 9 9 8 8 8 7 7 7 6 6 7 8 9 10 10 9 8 7 8 8 9 9 9 10 10 10 9 8 8 9 10 10 10 10 10 14 20 18 9 1 1 0 0 1 1 5 11 13 11 11 14 14 11 9 9 11 11 12 14 15 15 15 15 nan
nan 12 9 9 8 8 8 8 8 8 7 7 6 7 7 9 10 10 10 9 8 8 8 9 9 9 9 10 11 10 9 8 9 9 10 10 10 10 10 11 11 14 15 11 4 2 1 1 1 3 7 11 12 11 12 16 16 14 13 13 13 13 14 16 15 14 14 13 nan
nan 12 9 8 7 7 8 8 8 7 7 7 7 8 9 10 10 10 10 9 8 9 9 9 9 9 10 11 10 9 8 8 9 10 11 11 10 10 11 11 10 10 13 11 7 4 3 3 4 5 9 11 10 10 13 15 14 13 13 15 15 14 16 17 16 15 14 12 nan
nan 11 8 7 7 7 7 7 6 6 6 7 8 9 9 11 11 10 10 9 8 8 9 9 9 10 10 11 11 9 8 9 10 11 11 11 11 11 11 11 12 12 11 8 7 7 7 7 7 7 9 10 10 12 15 14 11 10 12 14 14 14 16 17 16 15 13 12 nan
nan 10 8 7 7 8 7 6 6 6 7 8 8 8 9 10 10 9 9 9 8 8 9 9 9 10 10 12 12 9 8 9 10 11 12 12 12 12 12 12 12 12 10 9 10 11 10 9 8 8 9 10 11 14 14 12 10 10 12 13 13 13 15 15 14 12 11 9 nan
nan 10 9 8 8 8 7 7 7 7 8 8 8 9 9 10 10 9 9 9 8 9 10 10 9 11 12 12 11 9 9 9 10 11 11 12 12 12 12 12 11 11 11 12 13 12 10 8 6 6 9 11 11 13 13 11 11 11 12 12 12 13 13 12 12 10 8 8 nan
nan nan nan nan nan nan nan nan nan nan nan nan nan nan nan nan nan nan nan nan nan nan nan nan nan nan nan nan nan nan nan nan nan nan nan nan nan nan nan nan nan nan nan nan nan nan nan nan nan nan nan nan nan nan nan nan nan nan nan nan nan nan nan nan nan nan nan nan nan
CAPE
nan nan nan nan nan nan nan nan nan nan nan nan nan nan nan nan nan nan nan nan nan nan nan nan nan nan nan nan 0 0 2 5 10 2 2 6 22 38 38 51 47 55 55 52 61 61 71 88 100 100 91 97 106 126 126 129 96 50 50 35 9 7 7 9 9 9 6 2 0
nan nan nan nan nan nan nan nan nan nan nan nan nan nan nan nan nan nan nan nan nan nan nan nan nan 0 0 1 5 5 11 13 22 16 16 22 32 48 48 63 65 54 54 65 85 85 91 123 123 123 108 100 112 118 118 143 106 38 38 28 9 6 6 8 7 7 6 5 3
1 nan nan nan nan nan nan nan nan nan nan nan nan nan nan nan nan nan nan nan nan nan nan nan 1 4 4 13 19 19 22 22 24 30 30 35 37 36 36 47 71 51 51 76 102 102 113 171 118 118 83 85 95 94 94 92 45 27 27 22 10 3 3 3 7 7 7 5 5
20 8 8 2 1 1 0 nan nan nan nan nan nan nan nan nan nan nan nan nan nan 1 1 3 8 20 20 27 28 28 32 13 28 45 45 50 56 49 49 53 80 108 108 119 137 137 214 238 125 125 87 93 98 83 83 79 46 28 28 28 17 9 9 6 9 9 7 7 10
35 21 21 11 7 7 5 3 1 1 0 nan nan nan nan nan nan nan nan nan 0 6 6 19 17 30 30 36 42 42 45 34 6 67 67 80 91 103 103 112 115 138 138 142 196 196 327 264 128 128 101 96 91 90 90 91 60 38 38 30 22 17 17 14 15 15 9 12 16
34 29 29 28 22 22 12 5 2 2 0 nan nan nan nan nan nan nan nan 0 3 12 12 7 7 14 14 45 60 60 61 63 34 83 83 105 131 137 137 138 163 168 168 172 202 202 306 230 119 119 97 102 97 93 93 88 64 44 44 27 23 20 20 21 19 19 18 18 21
21 22 22 26 25 25 11 3 0 0 nan nan nan nan nan nan nan 1 1 3 6 6 6 nan 3 15 15 43 59 59 73 56 65 84 84 104 122 108 108 140 163 194 194 166 172 172 211 189 152 152 77 54 90 85 85 95 87 56 56 46 48 39 39 42 41 41 34 32 30
10 9 9 8 6 6 2 0 nan nan nan nan nan nan nan 1 3 6 6 9 12 5 5 0 18 21 21 36 52 52 68 79 86 110 110 112 128 142 142 177 177 152 152 136 133 133 136 132 157 157 122 93 105 100 100 119 131 122 122 93 95 92 92 86 90 90 76 58 41
9 10 10 5 nan nan nan nan nan nan nan nan nan 2 2 10 15 12 12 15 14 15 15 19 28 36 36 51 75 75 94 131 140 140 140 145 161 173 173 178 149 114 114 98 93 93 98 127 181 181 161 189 169 156 156 186 198 208 208 206 180 157 157 115 93 93 95 93 78
8 5 5 nan nan nan nan nan nan nan nan nan 1 2 2 nan 4 16 16 15 14 36 36 49 57 68 68 103 124 124 136 150 162 152 152 125 123 123 123 104 79 66 66 51 58 58 77 110 157 157 211 228 193 193 193 216 244 245 245 255 177 156 156 96 72 72 73 70 81
1 nan nan nan nan nan nan nan nan nan nan 0 1 1 1 nan 4 11 11 10 29 54 54 67 89 89 89 125 124 124 156 126 105 92 92 81 57 60 60 42 30 27 27 33 58 58 66 103 137 137 152 228 264 203 203 199 232 232 232 197 130 72 72 66 49 49 41 34 54
nan nan nan nan nan nan nan nan nan nan nan nan nan nan nan 4 11 4 4 18 33 46 46 63 83 85 85 90 103 103 62 71 50 44 44 49 46 37 37 35 36 33 33 57 68 68 71 83 108 108 184 204 224 211 211 201 192 184 184 175 133 92 92 79 51 51 37 33 36
nan nan nan nan nan nan nan nan nan nan nan nan nan nan nan 1 2 3 3 21 24 28 28 51 81 82 82 58 58 58 59 48 34 32 32 44 39 41 41 47 53 73 73 63 59 59 51 58 97 97 130 177 178 192 192 133 108 101 101 133 129 110 110 105 68 68 45 41 33
nan nan nan nan nan nan nan nan nan nan nan nan nan nan nan nan nan nan nan 11 13 16 16 45 53 64 64 43 28 28 25 34 39 45 45 48 39 51 51 55 60 71 71 61 39 39 5 11 36 36 61 59 103 146 146 98 69 70 70 124 151 130 130 110 70 70 46 48 31
nan nan nan nan nan nan nan nan nan nan nan nan nan nan nan nan nan nan nan 2 0 16 16 36 29 27 27 30 16 16 24 32 28 37 37 33 33 32 32 25 23 11 11 9 8 8 6 6 6 6 9 11 15 22 22 18 17 28 28 41 56 53 53 58 44 44 36 42 38
nan nan nan nan nan nan nan nan nan nan nan nan nan nan nan nan nan nan nan 2 0 14 14 17 16 31 31 32 16 16 12 18 21 17 17 5 2 3 3 3 8 5 5 5 6 6 4 1 1 1 1 3 4 4 4 4 4 5 5 6 11 18 18 18 25 25 29 36 39
nan nan nan nan nan nan nan nan nan nan nan nan nan nan nan nan nan 0 0 0 0 4 4 9 9 13 13 0 3 3 3 4 6 nan nan nan nan 1 1 2 3 3 3 2 2 2 0 2 1 1 0 1 1 0 0 1 3 2 2 4 7 10 10 10 13 13 12 12 19
nan nan nan nan nan nan nan nan nan nan nan 1 5 16 16 24 15 17 17 13 8 1 1 3 3 0 0 nan 2 2 nan nan 0 0 0 1 2 1 1 0 nan nan nan nan nan nan nan nan nan nan nan 0 0 0 0 0 nan 0 0 0 1 1 1 1 1 1 3 6 6
nan nan nan nan nan nan nan nan nan nan 1 6 14 18 18 22 22 15 15 17 2 4 4 2 2 1 1 0 0 0 nan nan 1 2 2 3 3 2 2 1 0 0 0 0 nan nan nan nan nan nan 0 0 0 1 1 2 2 2 2 3 2 0 0 1 2 2 4 9 9
nan nan nan nan nan nan 1 1 2 2 7 15 23 21 21 17 18 9 9 1 3 2 2 0 nan nan nan nan nan nan nan nan 1 4 4 8 6 4 4 3 2 0 0 0 1 1 1 0 1 1 1 2 2 3 3 4 5 9 9 13 7 3 3 2 6 6 15 17 17
nan nan nan nan 2 2 6 7 8 8 14 24 28 29 29 21 14 3 3 nan nan nan nan nan nan nan nan nan nan nan 1 0 4 7 7 8 5 3 3 2 1 1 1 1 2 2 2 2 3 3 4 4 3 3 3 3 4 9 9 16 15 13 13 15 21 21 22 21 19
5 2 2 2 7 7 12 14 19 19 33 35 36 35 35 21 5 0 0 nan nan nan nan nan nan nan nan nan nan nan 0 0 4 4 4 6 5 3 3 4 3 3 3 3 2 2 2 4 4 4 5 3 1 0 0 1 2 5 5 12 20 23 23 25 28 28 24 23 22
24 16 16 17 23 23 15 25 34 34 38 37 36 30 30 7 nan nan nan nan nan nan nan nan 1 0 0 0 0 0 2 7 8 9 9 9 8 6 6 6 7 7 7 7 6 6 4 2 0 0 nan nan nan nan nan 0 0 1 1 5 9 13 13 19 20 20 21 20 22
43 34 34 38 41 41 38 41 38 38 33 23 19 10 10 nan nan nan nan nan 2 10 10 20 23 24 24 14 13 13 19 20 23 22 22 21 15 9 9 6 5 6 6 26 20 20 9 nan nan nan nan nan nan nan nan nan nan 0 0 2 4 8 8 13 13 13 15 18 29
72 46 46 54 43 43 44 44 35 35 21 8 2 0 0 nan 0 12 12 29 40 46 46 52 59 54 54 34 36 36 40 36 34 33 33 30 23 15 15 7 5 20 20 14 nan nan nan nan nan nan nan nan nan nan nan 0 1 4 4 9 10 15 15 20 22 22 31 26 29
88 69 69 62 49 49 47 39 27 27 11 1 nan nan nan 1 11 31 31 48 60 64 64 71 74 55 55 52 54 54 52 42 39 31 31 22 22 20 20 11 19 34 34 14 nan nan nan nan nan nan nan nan nan nan nan 0 3 5 5 11 15 24 24 23 24 24 35 37 31
107 83 83 67 55 55 42 27 10 10 1 nan nan 0 0 5 20 37 37 55 67 73 73 74 74 41 41 59 55 55 43 29 37 28 28 20 15 17 17 10 23 56 56 0 nan nan nan nan nan nan nan nan nan nan nan nan 0 1 1 4 10 17 17 18 16 16 25 49 41
99 86 86 80 57 57 36 14 0 0 nan nan nan 3 3 14 28 39 39 57 69 70 70 64 54 40 40 39 39 39 36 30 28 32 32 22 16 8 8 3 23 35 35 nan nan nan nan nan nan nan nan nan nan nan nan nan nan nan nan nan 0 1 1 3 7 7 16 30 37
118 102 102 75 50 50 30 2 nan nan nan nan 3 15 15 30 38 42 42 52 62 54 54 43 30 36 36 30 31 31 31 28 28 22 22 15 13 3 3 1 4 nan nan nan nan nan nan nan nan nan nan nan nan nan nan nan nan nan nan nan nan nan nan nan 1 1 6 14 22
123 93 93 53 43 43 21 0 nan nan nan 2 11 24 24 38 39 38 38 47 51 45 45 35 30 34 34 28 26 26 20 15 23 17 17 11 4 3 3 0 6 1 1 nan nan nan nan nan nan nan nan nan nan nan nan nan nan nan nan nan nan nan nan nan nan nan 1 7 16
163 95 95 47 36 36 16 0 1 1 6 15 22 30 30 33 36 34 34 43 48 33 33 39 38 34 34 24 20 20 13 12 14 14 14 10 4 1 1 0 7 3 3 nan nan nan nan nan nan nan nan nan nan nan nan nan nan nan nan nan nan nan nan nan nan nan 2 10 20
191 101 101 43 28 28 19 4 9 9 18 27 30 36 36 33 31 36 36 41 44 40 40 44 45 34 34 23 18 18 12 13 14 10 10 9 7 4 4 4 8 3 3 nan nan nan nan nan nan nan nan nan nan nan nan nan nan nan nan nan nan nan nan 0 3 3 7 16 21
205 97 97 35 18 18 14 12 19 19 28 42 45 42 42 37 36 46 46 45 43 47 47 45 46 33 33 27 21 21 18 20 18 10 10 11 10 5 5 5 6 0 0 nan nan nan nan nan nan nan nan nan nan nan nan nan nan nan nan nan nan nan nan 2 6 6 17 23 25
236 87 87 30 8 8 9 10 24 24 46 58 58 53 53 45 48 49 49 40 40 43 43 44 39 34 34 30 29 29 29 29 26 25 25 18 16 12 12 12 16 nan nan nan nan nan nan nan nan nan nan nan nan nan nan nan nan nan nan nan nan 3 3 16 29 29 32 30 30
227 87 87 27 4 4 0 4 19 19 39 61 60 66 66 55 48 44 44 26 28 43 43 43 40 35 35 33 36 36 37 48 53 37 37 28 22 17 17 14 20 nan nan nan nan nan nan nan nan nan nan nan nan nan nan nan nan nan nan nan 1 18 18 34 38 38 35 38 35
209 104 104 30 0 0 nan 2 14 14 39 71 77 67 67 51 45 33 33 19 24 38 38 39 42 39 39 40 50 50 42 56 54 52 52 43 30 23 23 17 19 nan nan nan nan nan nan nan nan nan nan nan nan nan nan nan nan nan nan 0 2 14 14 40 39 39 38 44 35
131 91 91 19 nan nan nan 5 22 22 42 75 71 56 56 50 35 36 36 25 32 35 35 39 39 39 39 35 42 42 29 30 47 51 51 45 43 29 29 22 21 7 7 nan nan nan nan nan nan nan nan nan nan nan nan nan nan nan nan 1 5 13 13 31 40 40 39 42 39
81 55 55 13 0 0 1 20 40 40 58 75 52 50 50 43 31 33 33 17 31 31 31 36 39 40 40 36 37 37 39 31 39 57 57 53 46 32 32 19 22 3 3 nan nan nan nan nan nan nan nan nan nan nan nan nan 1 2 2 2 4 10 10 13 15 15 25 35 22
75 8 8 0 2 2 9 29 66 66 82 65 47 33 33 27 23 28 28 25 35 33 33 35 36 39 39 40 27 27 46 38 35 54 54 64 51 25 25 12 10 3 3 0 2 2 1 nan nan nan nan nan nan 0 0 1 2 2 2 3 5 7 7 14 16 16 20 29 21
43 0 0 nan 3 3 12 25 49 49 65 46 34 28 28 17 19 26 26 28 38 41 41 36 32 34 34 18 23 23 34 38 44 47 47 64 46 4 4 3 5 2 2 3 8 8 7 nan nan nan nan nan 0 2 2 3 5 6 6 8 10 12 12 15 14 14 15 18 17
10 nan nan nan 2 2 12 23 39 39 49 44 30 17 17 13 12 40 40 38 43 44 44 42 37 30 30 19 24 24 33 31 27 44 44 37 27 2 2 6 14 11 11 13 20 20 9 nan nan nan nan nan 2 4 4 4 6 11 11 12 13 13 13 14 12 12 11 11 15